Theta_e
308 314 324 326 327 329 331 332 333 335 339 343 345 347 348 348 347 348 350 351 351 352 353 355 354 354 355 354 353 353 352 351 349 349 350 349 347 346 348 349 348 346 349
309 312 321 323 324 325 326 328 329 331 333 337 341 343 345 348 348 347 349 350 351 352 352 354 353 353 355 352 353 352 351 349 348 348 348 348 348 346 348 347 346 346 346
307 310 314 321 322 323 323 324 325 326 329 331 334 338 340 342 347 348 348 349 350 351 352 353 353 353 352 352 352 351 350 349 348 347 346 344 343 346 347 346 347 348 346
305 308 312 317 319 320 321 322 323 324 325 326 328 331 334 338 339 345 347 349 347 350 351 352 352 353 352 352 351 351 350 348 345 343 344 342 342 346 346 347 346 346 348
300 303 310 314 316 316 317 319 320 320 321 323 324 325 327 330 333 337 342 346 347 347 349 350 352 351 351 351 350 350 349 346 342 341 341 340 341 342 345 347 347 347 348
298 299 306 311 312 313 314 315 316 317 318 320 321 322 323 323 326 332 335 339 344 346 346 348 350 350 349 351 350 348 348 345 340 340 337 336 338 342 344 345 347 346 345
296 297 299 306 307 309 310 312 313 314 315 316 317 318 319 320 320 323 327 331 337 342 345 346 348 347 348 348 349 348 346 341 339 336 334 334 336 341 343 343 345 345 345
294 295 295 299 302 304 306 308 309 310 312 312 313 314 315 315 316 317 319 325 328 333 339 344 346 346 346 346 346 345 342 336 333 333 332 332 335 339 342 343 343 344 344
294 293 294 294 296 298 300 303 304 306 307 308 308 309 310 310 311 313 314 316 321 327 332 338 341 344 345 344 344 341 336 333 336 333 330 330 333 338 339 344 344 342 345
293 292 292 293 293 293 295 299 300 301 302 303 304 304 305 304 306 307 309 312 316 320 325 331 337 338 342 343 340 337 333 331 336 334 331 331 333 337 341 342 344 344 345
291 291 291 291 292 292 294 295 295 296 297 299 300 300 300 301 302 303 306 309 313 316 319 326 332 335 336 334 335 333 331 339 338 335 333 329 333 339 342 345 343 343 345
290 289 290 290 290 291 293 293 292 293 294 295 296 296 298 300 301 302 303 306 309 311 315 321 327 332 330 337 341 332 337 338 336 335 334 330 334 337 340 342 345 345 346
289 289 289 289 290 290 291 292 291 292 292 294 294 295 297 298 300 300 301 303 305 308 311 316 322 328 335 336 337 339 338 338 337 335 333 329 335 337 338 341 346 346 345
288 288 288 288 288 289 290 290 290 291 293 292 293 295 294 296 297 298 299 301 303 306 308 312 316 319 324 335 337 338 338 337 336 336 333 325 332 337 337 339 346 345 345
287 287 287 288 288 288 288 289 289 290 291 291 292 293 294 294 295 297 298 300 302 304 306 308 310 315 320 326 336 337 337 337 335 334 333 321 326 334 337 340 345 346 344
287 287 287 288 288 288 287 288 288 289 290 291 291 292 293 294 295 297 297 298 301 303 305 307 308 310 315 321 328 335 335 336 335 332 331 328 324 329 334 340 345 346 344
286 287 286 287 288 286 286 287 287 288 289 289 290 291 292 294 295 296 296 297 298 301 304 306 307 310 314 320 325 332 334 334 334 332 331 330 327 323 328 335 342 343 344
286 285 285 286 285 286 286 286 287 287 288 289 290 291 291 294 295 296 295 296 298 300 301 303 306 307 311 317 322 328 332 333 332 331 330 329 328 327 325 330 335 340 342
284 284 283 284 284 285 285 286 286 287 287 289 289 289 291 292 294 294 294 295 297 298 300 302 304 307 309 314 320 315 312 309 319 330 329 327 325 324 327 323 324 327 336
283 283 282 283 284 284 285 284 285 286 287 287 287 289 290 290 291 292 293 295 297 297 298 302 303 307 309 315 310 306 303 304 302 304 316 324 323 322 317 316 318 318 325
282 281 281 281 282 283 282 281 282 282 284 285 286 287 289 290 291 293 294 297 298 298 298 300 303 304 306 312 306 304 303 299 297 296 298 302 304 306 304 304 307 312 316
280 280 280 281 281 281 281 281 282 283 283 284 285 287 288 290 291 291 293 295 298 297 297 299 301 303 306 312 310 309 303 302 298 294 294 294 294 297 297 295 296 299 302
278 278 279 280 280 280 280 282 282 283 283 283 283 284 286 288 289 290 291 296 296 297 298 300 302 303 303 311 313 310 303 304 298 294 291 291 291 291 292 292 292 292 295
278 279 278 279 279 280 280 280 279 279 278 281 282 283 285 287 287 289 291 294 294 295 296 299 302 305 307 306 312 314 310 305 301 294 291 289 289 288 286 289 288 288 289
278 277 277 277 278 280 280 279 279 278 279 281 281 282 284 285 286 289 291 292 291 292 293 294 296 299 303 306 310 310 305 304 303 301 294 289 288 287 287 287 287 288 288
277 276 277 277 277 278 278 278 278 277 278 278 279 280 282 283 286 287 289 289 289 290 291 291 293 295 298 301 307 309 304 303 302 300 294 291 290 285 286 286 286 287 288
Wind_Speed
6 7 13 15 17 18 19 19 21 21 21 20 19 19 10 8 8 8 9 13 14 14 14 15 15 16 16 15 14 14 13 14 14 12 13 12 12 12 12 12 11 11 13
4 7 13 15 17 18 18 20 21 20 21 21 20 19 23 11 8 8 8 5 11 13 15 15 14 15 14 15 14 15 14 12 11 11 11 10 10 12 12 11 9 12 12
7 7 8 15 17 17 18 19 19 19 19 20 20 20 19 22 12 8 8 7 8 12 14 14 15 14 14 13 14 13 15 13 12 12 12 9 10 13 13 11 10 12 12
7 8 9 15 16 17 17 18 19 19 19 19 19 20 19 18 18 18 10 8 7 11 13 13 15 15 13 12 13 14 14 15 14 12 10 9 10 14 14 12 11 12 11
8 8 10 14 15 17 17 17 18 18 19 18 18 17 16 17 17 19 16 14 10 8 13 14 15 15 14 14 14 14 14 13 12 12 11 10 10 13 16 14 12 10 9
8 9 12 15 16 17 17 17 18 18 17 17 17 17 17 17 17 16 17 16 14 11 11 14 14 15 16 16 15 16 15 15 13 11 10 11 11 14 17 16 11 9 8
8 9 10 15 16 16 16 16 17 18 17 16 16 16 17 17 16 16 16 16 14 13 11 13 14 15 15 18 17 17 16 15 13 11 10 10 11 16 18 17 15 13 11
7 7 8 11 13 14 13 15 16 17 16 17 18 17 17 17 16 16 16 15 15 14 14 12 13 13 15 16 17 18 16 15 12 12 11 10 12 17 19 18 17 15 15
6 7 7 7 9 12 10 13 15 16 16 17 17 16 17 17 16 16 17 15 16 15 14 12 12 12 13 16 16 14 14 14 13 9 10 8 13 18 19 17 17 17 16
5 6 6 6 5 6 4 11 13 14 16 17 16 17 18 15 16 16 15 16 17 16 15 13 11 12 12 13 14 14 14 14 13 10 9 8 15 19 19 17 18 18 17
3 4 4 5 6 7 4 7 9 10 12 14 14 15 12 9 10 13 15 17 17 17 16 15 14 12 9 10 11 13 14 8 11 8 8 12 18 20 20 18 19 19 18
2 2 4 5 7 7 6 7 7 8 6 6 7 9 7 8 9 11 11 15 15 16 16 14 14 12 7 6 5 9 7 10 9 9 8 16 20 22 21 20 20 20 20
2 1 3 5 6 7 7 7 5 5 6 6 9 8 8 8 7 6 6 6 7 10 7 9 8 6 8 6 7 7 9 9 7 8 11 16 20 22 22 21 19 21 22
4 3 1 3 5 5 5 5 7 7 7 7 8 10 8 6 8 7 6 8 7 6 9 8 5 8 8 10 11 11 11 10 7 7 9 15 18 21 23 22 20 20 21
5 2 2 4 4 5 6 5 6 6 6 8 8 9 8 8 8 8 8 7 7 7 7 7 8 8 9 10 10 11 13 13 12 7 6 14 16 18 21 22 22 21 22
4 2 3 5 5 6 7 7 6 6 7 7 8 8 10 8 8 8 8 9 8 7 8 7 8 8 8 8 12 11 13 12 13 12 8 8 17 18 18 19 22 21 24
3 3 3 3 4 6 6 6 6 6 7 7 7 9 9 9 9 10 9 9 9 8 11 9 9 8 8 8 11 10 10 13 12 14 11 9 10 15 16 17 18 21 22
5 3 1 2 4 6 6 6 6 6 6 6 6 7 11 10 10 10 9 9 9 9 9 8 8 8 7 8 9 8 9 10 12 14 11 10 6 5 8 15 17 19 22
5 3 0 3 5 7 8 7 8 8 6 6 6 7 10 10 10 9 9 10 11 9 9 9 8 8 8 8 8 3 2 3 7 11 15 15 13 8 7 3 4 15 19
4 2 3 4 6 7 7 7 6 6 5 6 7 7 10 10 11 9 9 10 10 8 9 9 10 8 8 8 3 2 2 4 4 6 3 9 14 15 7 2 1 3 6
2 0 3 4 5 5 5 6 5 6 7 6 6 11 11 10 11 10 8 8 9 9 10 11 10 11 7 4 3 1 3 4 4 5 5 4 3 3 3 3 3 2 2
1 1 3 4 5 5 5 5 4 7 6 8 7 8 9 10 10 11 11 10 8 8 12 12 11 9 8 7 4 3 3 1 3 4 4 5 5 2 5 4 4 3 1
1 1 3 5 6 6 6 6 6 7 6 5 6 7 8 10 11 12 12 11 8 7 8 10 11 13 9 6 12 4 2 4 1 2 4 3 4 4 3 2 3 2 2
1 3 4 6 7 7 7 7 8 8 9 9 9 8 9 12 11 12 12 7 8 7 9 9 8 9 10 9 5 9 2 2 3 2 1 2 3 4 3 2 3 2 1
2 3 4 6 7 7 7 7 7 8 8 9 9 12 12 10 12 11 9 9 9 6 8 10 9 7 7 8 7 3 2 2 1 2 4 2 1 2 2 4 2 3 4
3 4 4 6 6 8 7 8 8 9 10 9 10 9 8 7 7 11 9 8 9 9 9 7 9 8 7 7 5 3 3 3 2 2 4 2 2 2 2 2 2 5 4
Wind_Direction
14 3 31 33 33 33 30 29 33 28 26 24 27 21 358 345 341 335 327 197 190 193 193 186 178 178 172 167 163 158 162 160 163 161 147 145 138 137 134 127 129 139 133
68 19 26 32 32 30 31 30 28 27 25 24 20 22 14 349 332 329 330 251 196 196 202 194 190 189 182 174 168 163 166 169 163 157 142 145 144 146 144 138 138 141 142
61 36 20 33 31 28 26 27 27 27 26 21 21 18 13 7 357 320 321 325 214 208 212 206 198 194 194 182 172 170 166 160 156 152 147 157 157 157 159 155 154 154 159
60 35 31 34 30 25 24 23 20 19 21 22 21 18 10 0 7 6 326 314 292 231 225 214 212 202 196 185 177 174 168 161 160 155 163 165 165 167 169 169 170 162 161
61 41 37 35 32 24 20 19 16 15 13 15 15 16 11 6 0 3 2 353 316 280 246 228 223 217 204 190 183 182 171 168 166 164 169 171 174 177 176 176 182 171 166
52 43 34 34 29 24 19 18 14 11 10 11 9 7 6 4 4 3 358 357 353 315 276 253 247 228 213 197 189 186 177 169 166 181 176 174 184 186 184 185 180 164 174
58 42 35 32 26 22 20 18 12 8 6 6 4 2 360 360 1 0 357 353 342 339 313 275 256 252 227 208 196 187 180 172 182 182 185 185 190 195 189 191 189 178 183
85 59 45 33 29 22 18 18 11 6 7 2 360 358 356 353 354 353 354 353 349 339 337 321 281 266 240 220 202 197 179 174 180 188 190 192 196 197 199 193 192 193 188
81 65 46 33 24 19 19 20 10 3 3 0 357 356 352 348 348 348 349 347 343 335 330 319 324 307 261 243 218 204 187 181 188 192 193 198 198 201 203 197 194 200 199
83 58 40 33 25 14 12 20 10 3 360 356 355 353 350 345 343 343 342 340 335 331 324 317 306 302 305 266 245 212 189 183 198 194 200 202 200 202 205 200 198 201 202
100 72 48 20 16 13 17 9 1 2 359 354 351 349 348 341 339 334 332 330 330 328 323 318 308 289 294 293 256 216 193 195 198 199 201 199 203 208 211 206 202 206 212
171 95 35 22 11 6 3 358 353 350 349 350 345 342 338 332 331 330 323 325 326 326 323 322 318 309 268 270 265 218 206 198 199 202 205 198 206 211 212 217 221 218 210
159 78 25 10 8 9 358 350 350 347 342 341 342 339 329 328 326 327 323 328 327 325 326 320 313 307 277 255 249 228 211 204 209 205 212 202 209 214 216 221 220 215 212
184 179 102 27 9 9 355 348 339 339 337 334 333 333 331 324 323 322 317 317 313 315 313 314 312 302 293 269 241 230 216 204 201 207 211 198 208 218 219 225 224 217 213
196 184 26 14 12 2 349 339 334 331 324 321 322 324 325 318 311 313 311 310 305 304 298 302 305 304 298 291 240 226 220 213 205 200 204 198 206 215 225 228 227 216 217
176 163 27 6 4 354 340 331 322 318 313 310 312 312 314 308 304 304 306 305 301 300 296 292 292 292 287 280 280 228 221 218 213 203 197 195 207 209 220 232 234 218 217
169 121 34 349 20 337 322 314 311 300 304 295 299 305 309 306 302 299 301 299 297 297 295 291 287 283 279 278 271 245 227 220 210 204 200 193 203 209 208 226 238 232 221
139 158 93 0 324 321 325 321 317 311 303 297 300 306 309 305 301 296 296 295 295 294 291 284 285 286 279 275 277 268 238 230 222 201 188 189 180 222 218 221 224 231 221
148 126 43 329 337 337 330 326 320 316 312 311 310 307 304 304 302 295 294 293 293 290 285 281 278 271 278 276 281 313 332 8 299 203 192 184 181 207 238 186 262 251 222
118 92 352 345 342 339 329 321 311 309 305 314 308 303 306 303 299 294 289 285 286 286 287 282 275 272 269 277 304 296 34 351 21 359 269 193 187 180 162 159 244 267 250
116 354 340 328 335 331 330 329 323 308 309 297 303 299 296 292 295 296 285 293 290 287 289 285 283 278 274 218 155 190 32 50 37 34 1 47 8 109 88 106 140 269 315
184 300 320 312 308 319 321 310 288 302 290 297 300 304 313 302 312 304 301 292 286 293 289 286 273 272 257 210 220 219 185 272 67 45 33 41 36 66 98 64 37 287 290
286 298 300 313 321 320 314 306 303 297 293 310 317 312 310 312 309 301 290 285 295 291 284 285 273 260 257 239 220 209 175 204 140 8 33 63 52 61 38 110 114 9 23
259 317 317 325 319 317 321 316 308 308 308 311 310 308 310 307 305 297 287 296 295 291 288 285 290 282 246 245 233 227 211 126 188 176 11 22 75 97 62 21 60 104 1
306 304 321 310 308 315 315 307 307 303 299 302 302 304 305 309 303 294 311 311 301 297 290 291 293 300 287 253 247 222 164 245 103 188 151 167 44 13 103 101 247 55 46
321 327 327 321 319 315 318 314 310 296 301 299 299 299 300 301 300 301 309 313 304 298 289 286 291 284 286 285 272 227 168 173 199 235 104 144 129 99 350 116 62 93 29